Showing default

HULIANWANG DIGUI-30, 64283

Orbit data source: Space-Track

HULIANWANG DIGUI-30, 64283 is a payload satellite owned by Zhongguo Xingwang (CN) in LEO that was launched on Thu, 05 Jun 2025 UTC via a CHANG ZHENG 6A launch vehicle from the Taiyaun Space Center, China (TSC). Payload-class satellites include a variety of spacecraft equipped with specific instruments for various scientific and technological missions. These include communications satellites like Starlink; space stations such as the ISS; scientific satellites like the Hubble; Earth observation satellites from companies like Planet Labs, Umbra, and HawkEye 360; GPS; miniature CubeSats for education and research; and military/defense satellites.

Loading next visibility...
Identifier
64283, 2025-121A
Orbit
LEO
Country
Flag of CNCN / PRC
Related business
Manufacturer
SECM
Mission
Operational Civil Communications
Bus & Motor
XINGWANG S, Unknown motor
Mass
~800 kg wet, ~800 kg dry
Launch date (UTC)
2025-06-05 (11 months ago)
Launch vehicle
CHANG ZHENG 6A
Launch site
Taiyaun Space Center, China (TSC)
Object type
Payload
Rocket body
Debris
Shape & HBR
Box + 2 Pan, 5.0 m
Radar Cross Section
5.935 m², Large (>1 m²)

Expand to show TLE details & history
Last TLE update: 1 day ago

TLE from 1 day ago
0 HULIANWANG DIGUI-30
1 64283U 25121A   26135.30463723  .00000034  00000-0  46022-4 0  9994
2 64283  86.5017  24.6554 0001633  84.6508 275.4812 13.24409553 45804
Epoch: 2026-05-15T07:18Z
TLE epoch observation values (Epoch: 2026-05-15T07:18:40.656Z)
Latitude
-0.00007°
Longitude
41.94812°
Altitude
1,170.701 km
Speed
7.268 km/s
True Right ascension
01h 38m 37s
True Declination
0° 00' 00"
Sunlit
Object was in daylight at epoch
Visualization orbit readout
Latitude
Unknown
Longitude
Unknown
Altitude
Unknown
Speed
Unknown
Apparent Right ascension
Unknown
Apparent Declination
Unknown
Sunlit
N/A
Visualization observer readout
Local Sidereal Time
19:24:15
Azimuth
Unknown
Elevation
Unknown
Doppler factor
Unknown
Orbital elements
Apogee altitude
1,166.276 km
Perigee altitude
1,163.812 km
Semi-major axis
7,543.181 km
Eccentricity
0.00016
Inclination
86.5017°
RAAN
24.6554°
Arg. of periapsis
84.6508°
True anomaly
275.46257°
Mean anomaly
275.4812°
Eccentric anomaly
275.47189°
Mean motion
3.31292 °/min
Orbital period
108.67 mins
BSTAR
0.000046022
Loading maneuver chart data...
Computing Atmospheric mass density...
Loading historical data...
Loading historical data...
Loading historical data...
Loading historical data...
Loading historical data...
Loading historical data...
Loading historical data...

Documentation

Showing up to 5 results
|